This is the latest recevied weather packets stored in our database for station/object K4AGR-13. If no packets are shown the sender has not sent any weather packets the latest 10 day(s).
| Time | Temp. | Humidity | Pressure | Rain* | Wind** | Luminosity | Snow |
|---|---|---|---|---|---|---|---|
| 1777665790 | 17.22° C | 86% | 1012.5 hPa | 0 mm | - | 110 W/m² | - |
| 1777665488 | 17.22° C | 87% | 1012.7 hPa | 0 mm | - | 96 W/m² | - |
| 1777665183 | 17.22° C | 85% | 1012.8 hPa | 0 mm | - | 85 W/m² | - |
| 1777664880 | 17.22° C | 84% | 1012.7 hPa | 0 mm | - | 55 W/m² | - |
| 1777664576 | 17.78° C | 83% | 1012.8 hPa | 0 mm | - | 56 W/m² | - |
| 1777664272 | 17.22° C | 83% | 1012.4 hPa | 0 mm | - | 83 W/m² | - |
| 1777663971 | 17.22° C | 83% | 1012.5 hPa | 0 mm | - | 82 W/m² | - |
| 1777663668 | 17.22° C | 82% | 1012.6 hPa | 0 mm | - | 96 W/m² | - |
| 1777663364 | 17.22° C | 81% | 1012.7 hPa | 0 mm | - | 124 W/m² | - |
| 1777663062 | 17.22° C | 81% | 1012.8 hPa | 0 mm | - | 157 W/m² | - |
| 1777662759 | 17.22° C | 81% | 1012.9 hPa | 0 mm | - | 158 W/m² | - |
| 1777662455 | 17.22° C | 80% | 1013 hPa | 0 mm | - | 105 W/m² | - |
| 1777662151 | 17.22° C | 80% | 1013.1 hPa | 0 mm | - | 117 W/m² | - |
| 1777661847 | 17.22° C | 78% | 1013.3 hPa | 0 mm | - | 155 W/m² | - |
| 1777661543 | 17.78° C | 77% | 1013.4 hPa | 0 mm | - | 156 W/m² | - |
| 1777661239 | 17.78° C | 76% | 1013.4 hPa | 0 mm | - | 170 W/m² | - |
| 1777660935 | 17.78° C | 76% | 1013.3 hPa | 0 mm | - | 186 W/m² | - |
| 1777660631 | 17.78° C | 75% | 1013.4 hPa | 0 mm | - | 213 W/m² | - |
| 1777660328 | 17.78° C | 75% | 1013.4 hPa | 0 mm | - | 260 W/m² | - |
| 1777660024 | 18.33° C | 77% | 1013.3 hPa | 0 mm | - | 278 W/m² | - |
| 1777659721 | 18.33° C | 76% | 1013.3 hPa | 0 mm | - | 175 W/m² | - |
| 1777659418 | 18.89° C | 74% | 1013.6 hPa | 0 mm | - | 173 W/m² | - |
| 1777659115 | 18.89° C | 74% | 1013.3 hPa | 0 mm | - | 235 W/m² | - |
| 1777658814 | 18.89° C | 73% | 1013.5 hPa | 0 mm | - | 267 W/m² | - |
| 1777658509 | 18.89° C | 71% | 1013.7 hPa | 0 mm | - | 222 W/m² | - |
* Rain latest hour (hover to see other rain measurements)
** Current wind speed in m/s (hover to see current wind gust speed)